THOR ABLESTAR DEB, 558

Orbit data source: Space-Track

THOR ABLESTAR DEB, 558 is space debris in LEO originally from a launch on Thu, 29 Jun 1961 UTC launched from the Air Force Eastern Test Range (AFETR). Debris objects in space refer to the collection of defunct objects orbiting the Earth. Examples of debris include non-operational satellites, rocket bodies, and fragments generated from explosions, collisions, or faulty payload assembly.

Loading next visibility...
Identifier
558, 1961-015GQ
Orbit
LEO
Country
Flag of USUS
Related business
Manufacturer
Unknown
Mission
Spacecraft
Bus & Motor
Unknown
Mass
Unknown
Launch date (UTC)
1961-06-29 (64 years ago)
Launch vehicle
Unknown
Launch site
Air Force Eastern Test Range (AFETR)
Object type
Payload
Rocket body
Debris
Shape & HBR
Unknown shape, 0.2 m
Radar Cross Section
Small (<0.1 m²)

Expand to show TLE details & history
Last TLE update: 6 hours ago

TLE from 6 hours ago
0 THOR ABLESTAR DEB
1 00558U 61015GQ  25308.24461626 -.00000072  00000-0 -17877-4 0  9995
2 00558  65.6974 277.6817 0475306 190.4230 278.6672 12.86463046 20627
Epoch: 2025-11-04T05:52Z
TLE epoch observation values (Epoch: 2025-11-04T05:52:14.844Z)
Latitude
62.43494°
Longitude
-93.51251°
Altitude
1,287.438 km
Speed
7.236 km/s
True Right ascension
02h 33m 08s
True Declination
62° 18' 12"
Sunlit
Object was in full shadow at epoch
Visualization orbit readout
Latitude
Unknown
Longitude
Unknown
Altitude
Unknown
Speed
Unknown
Apparent Right ascension
Unknown
Apparent Declination
Unknown
Sunlit
N/A
Visualization observer readout
Local Sidereal Time
07:25:58
Azimuth
Unknown
Elevation
Unknown
Doppler factor
Unknown
Orbital elements
Apogee altitude
1,679.806 km
Perigee altitude
948.565 km
Semi-major axis
7,692.323 km
Eccentricity
0.04753
Inclination
65.6974°
RAAN
277.6817°
Arg. of periapsis
190.423°
True anomaly
273.24229°
Mean anomaly
278.6672°
Eccentric anomaly
275.95861°
Mean motion
3.21704 °/min
Orbital period
111.9 mins
BSTAR
-0.000017877
Loading maneuver chart data...
Computing Atmospheric mass density...

Documentation

Showing up to 5 results
|